TimeEST,TemperatureF,Dew PointF,Humidity,Sea Level PressureIn,VisibilityMPH,Wind Direction,Wind SpeedMPH,Gust SpeedMPH,PrecipitationIn,Events,Conditions,WindDirDegrees,DateUTC
12:53 AM,42.1,35.1,76,29.56,10.0,NNW,5.8,-,N/A,,Partly Cloudy,330,2012-12-19 05:53:00
1:53 AM,36.0,34.0,93,29.57,10.0,Calm,Calm,-,N/A,,Mostly Cloudy,0,2012-12-19 06:53:00
2:53 AM,42.1,34.0,73,29.58,10.0,NW,6.9,17.3,N/A,,Clear,320,2012-12-19 07:53:00
3:53 AM,41.0,33.1,73,29.59,10.0,NNW,4.6,-,N/A,,Clear,330,2012-12-19 08:53:00
4:53 AM,39.9,30.9,70,29.60,10.0,WNW,5.8,-,N/A,,Clear,300,2012-12-19 09:53:00
5:53 AM,39.0,30.0,70,29.62,10.0,NW,8.1,-,N/A,,Clear,310,2012-12-19 10:53:00
6:53 AM,39.9,28.9,65,29.65,10.0,NW,13.8,20.7,N/A,,Partly Cloudy,310,2012-12-19 11:53:00
7:53 AM,41.0,28.0,60,29.67,10.0,NW,9.2,-,N/A,,Mostly Cloudy,320,2012-12-19 12:53:00
8:53 AM,43.0,27.0,53,29.70,10.0,NW,12.7,20.7,N/A,,Mostly Cloudy,310,2012-12-19 13:53:00
9:53 AM,44.1,26.1,49,29.70,10.0,NW,16.1,24.2,N/A,,Clear,310,2012-12-19 14:53:00
10:53 AM,46.0,24.1,42,29.71,10.0,NW,23.0,34.5,N/A,,Clear,310,2012-12-19 15:53:00
11:53 AM,46.9,26.1,44,29.73,10.0,NW,17.3,26.5,N/A,,Clear,310,2012-12-19 16:53:00
12:53 PM,48.0,27.0,44,29.74,10.0,NW,19.6,32.2,N/A,,Scattered Clouds,320,2012-12-19 17:53:00
1:53 PM,46.9,28.0,48,29.76,10.0,NNW,16.1,24.2,N/A,,Overcast,330,2012-12-19 18:53:00
2:53 PM,46.9,28.0,48,29.79,10.0,NNW,13.8,28.8,N/A,,Overcast,330,2012-12-19 19:53:00
3:53 PM,45.0,27.0,49,29.83,10.0,NNW,16.1,26.5,N/A,,Scattered Clouds,330,2012-12-19 20:53:00
4:53 PM,43.0,27.0,53,29.87,10.0,NNW,11.5,26.5,N/A,,Scattered Clouds,330,2012-12-19 21:53:00
5:53 PM,42.1,26.1,53,29.92,10.0,NNW,12.7,20.7,N/A,,Clear,330,2012-12-19 22:53:00
6:53 PM,41.0,26.1,55,29.96,10.0,NNW,10.4,-,N/A,,Clear,330,2012-12-19 23:53:00
7:53 PM,39.9,25.0,55,30.01,10.0,NW,12.7,24.2,N/A,,Clear,310,2012-12-20 00:53:00
8:53 PM,39.0,25.0,57,30.04,10.0,NNW,12.7,-,N/A,,Clear,330,2012-12-20 01:53:00
9:53 PM,39.0,25.0,57,30.05,10.0,NNW,12.7,19.6,N/A,,Clear,330,2012-12-20 02:53:00
10:53 PM,39.0,25.0,57,30.06,10.0,NNW,11.5,21.9,N/A,,Clear,330,2012-12-20 03:53:00
11:53 PM,37.9,25.0,60,30.08,10.0,NW,9.2,-,N/A,,Clear,310,2012-12-20 04:53:00